Location: Jetmore Oil Field
(38.1181°N, 99.9337°W)
Time: 05:33:07
(UTC+00:00)

STARLINK-2733 - Pass Details

Date: 24 June 2021
Orbit: 546 x 548 km, 53.1° (Epoch: 24 July)

Event Time Altitude Azimuth Distance (km) Brightness Sun altitude
Exits shadow 09:31:39 35° 230° (SW) 888 4.1 -16.8°
Maximum altitude 09:33:18 87° 314° (NW) 551 3.5 -16.6°
Drops below altitude 10° 09:37:27 10° 48° (NE) 1,819 7.6 -16.0°
Sets 09:39:41 0° 49° (NE) 2,716 9.0 -15.7°
